| time (UTC) | temp C | wind direction | speed KPH | gust KPH | rain 1hr cm | rain 24hr cm | rain mn cm | humidity % | barometer mb |
| 20260507141516 | 16 | 245 | 1.6 | 6.4 | 0.00 | 0.00 | 0.00 | 54 | 996.6 |
| 20260507140517 | 16 | 312 | 0.0 | 3.2 | 0.00 | 0.00 | 0.00 | 55 | 996.8 |
| 20260507135519 | 16 | 74 | 1.6 | 3.2 | 0.00 | 0.00 | 0.00 | 54 | 996.9 |
| 20260507134520 | 16 | 30 | 4.8 | 9.7 | 0.00 | 0.00 | 0.00 | 54 | 996.9 |
| 20260507133515 | 17 | 40 | 6.4 | 11.3 | 0.00 | 0.00 | 0.00 | 52 | 996.9 |
| 20260507132517 | 17 | 330 | 3.2 | 8.0 | 0.00 | 0.00 | 0.00 | 54 | 996.8 |
| 20260507131538 | 16 | 202 | 4.8 | 8.0 | 0.00 | 0.00 | 0.00 | 54 | 996.9 |
| 20260507130519 | 16 | 191 | 4.8 | 8.0 | 0.00 | 0.00 | 0.00 | 54 | 997.0 |
| 20260507125520 | 16 | 246 | 3.2 | 9.7 | 0.00 | 0.00 | 0.00 | 56 | 996.9 |
| 20260507124516 | 16 | 167 | 1.6 | 4.8 | 0.00 | 0.00 | 0.00 | 56 | 997.0 |
| 20260507123538 | 15 | 48 | 1.6 | 4.8 | 0.00 | 0.00 | 0.00 | 56 | 997.0 |
| 20260507122519 | 15 | 28 | 1.6 | 8.0 | 0.00 | 0.00 | 0.00 | 56 | 997.0 |
| 20260507121520 | 15 | 50 | 1.6 | 4.8 | 0.00 | 0.00 | 0.00 | 59 | 997.0 |
| 20260507120516 | 15 | 20 | 6.4 | 11.3 | 0.00 | 0.00 | 0.00 | 57 | 997.0 |
| 20260507115517 | 16 | 21 | 8.0 | 14.5 | 0.00 | 0.00 | 0.00 | 58 | 996.9 |
| 20260507114518 | 15 | 346 | 1.6 | 8.0 | 0.00 | 0.00 | 0.00 | 55 | 997.0 |
| 20260507113519 | 15 | 45 | 3.2 | 8.0 | 0.00 | 0.00 | 0.00 | 54 | 997.0 |
| 20260507112516 | 15 | 47 | 4.8 | 14.5 | 0.00 | 0.00 | 0.00 | 56 | 997.0 |
| 20260507111516 | 15 | 73 | 4.8 | 11.3 | 0.00 | 0.00 | 0.00 | 58 | 997.1 |
| 20260507110518 | 15 | 33 | 9.7 | 16.1 | 0.00 | 0.00 | 0.00 | 59 | 997.1 |
| 20260507105539 | 14 | 42 | 1.6 | 4.8 | 0.00 | 0.00 | 0.00 | 62 | 997.2 |
| 20260507104520 | 15 | 40 | 3.2 | 11.3 | 0.00 | 0.00 | 0.00 | 63 | 997.2 |
| 20260507103521 | 15 | 192 | 1.6 | 4.8 | 0.00 | 0.00 | 0.00 | 66 | 997.2 |
| 20260507102517 | 15 | 355 | 4.8 | 8.0 | 0.00 | 0.00 | 0.00 | 66 | 997.2 |
| 20260507101518 | 14 | 28 | 4.8 | 11.3 | 0.00 | 0.00 | 0.00 | 67 | 997.2 |
| 20260507100519 | 13 | 58 | 4.8 | 9.7 | 0.00 | 0.00 | 0.00 | 66 | 997.3 |
| 20260507095520 | 13 | 30 | 6.4 | 12.9 | 0.00 | 0.00 | 0.00 | 67 | 997.3 |
| 20260507094516 | 13 | 74 | 3.2 | 11.3 | 0.00 | 0.00 | 0.00 | 68 | 997.3 |
| 20260507093517 | 13 | 53 | 6.4 | 14.5 | 0.00 | 0.00 | 0.00 | 69 | 997.3 |
| 20260507092518 | 13 | 32 | 8.0 | 16.1 | 0.00 | 0.00 | 0.00 | 70 | 997.2 |
| 20260507091539 | 13 | 11 | 4.8 | 9.7 | 0.00 | 0.00 | 0.00 | 72 | 997.2 |
| 20260507090520 | 13 | 55 | 4.8 | 9.7 | 0.00 | 0.00 | 0.00 | 73 | 997.2 |
| 20260507085516 | 13 | 45 | 3.2 | 11.3 | 0.00 | 0.00 | 0.00 | 74 | 997.1 |
| 20260507084517 | 12 | 47 | 3.2 | 6.4 | 0.00 | 0.00 | 0.00 | 74 | 997.1 |
| 20260507083518 | 12 | 255 | 3.2 | 8.0 | 0.00 | 0.00 | 0.00 | 75 | 997.1 |
| 20260507082519 | 12 | 45 | 3.2 | 8.0 | 0.00 | 0.00 | 0.00 | 77 | 997.1 |
| 20260507081520 | 12 | 70 | 1.6 | 6.4 | 0.00 | 0.00 | 0.00 | 79 | 997.1 |
| 20260507080517 | 12 | 327 | 1.6 | 4.8 | 0.00 | 0.03 | 0.00 | 83 | 997.0 |
| 20260507075518 | 11 | 0.0 | 0.0 | 0.00 | 0.03 | 0.00 | 84 | 997.1 | |
| 20260507074519 | 11 | 0.0 | 0.0 | 0.00 | 0.03 | 0.00 | 85 | 997.0 | |
| 20260507073520 | 11 | 29 | 1.6 | 6.4 | 0.00 | 0.03 | 0.00 | 87 | 997.0 |
| 20260507072517 | 10 | 31 | 1.6 | 4.8 | 0.00 | 0.03 | 0.00 | 89 | 996.9 |
| 20260507071518 | 10 | 45 | 0.0 | 4.8 | 0.00 | 0.03 | 0.00 | 89 | 996.9 |
| 20260507070519 | 10 | 20 | 0.0 | 3.2 | 0.00 | 0.03 | 0.00 | 91 | 996.8 |
| 20260507065540 | 9 | 5 | 0.0 | 4.8 | 0.00 | 0.03 | 0.00 | 93 | 996.8 |
| 20260507064516 | 9 | 0.0 | 0.0 | 0.00 | 0.03 | 0.00 | 94 | 996.8 | |
| 20260507063517 | 9 | 0.0 | 0.0 | 0.00 | 0.03 | 0.00 | 94 | 996.7 | |
| 20260507062519 | 8 | 35 | 0.0 | 3.2 | 0.00 | 0.03 | 0.00 | 95 | 996.6 |
| 20260507061520 | 8 | 0.0 | 0.0 | 0.00 | 0.03 | 0.00 | 95 | 996.6 | |
| 20260507060516 | 8 | 53 | 1.6 | 4.8 | 0.00 | 0.03 | 0.00 | 96 | 996.6 |
| 20260507055517 | 8 | 49 | 1.6 | 4.8 | 0.00 | 0.03 | 0.00 | 96 | 996.5 |
| 20260507054518 | 8 | 10 | 0.0 | 3.2 | 0.00 | 0.03 | 0.00 | 96 | 996.4 |
| 20260507053519 | 8 | 12 | 0.0 | 3.2 | 0.00 | 0.03 | 0.00 | 96 | 996.3 |
| 20260507052516 | 8 | 59 | 1.6 | 3.2 | 0.00 | 0.03 | 0.00 | 97 | 996.3 |
| 20260507051517 | 7 | 56 | 0.0 | 1.6 | 0.00 | 0.03 | 0.00 | 97 | 996.3 |
| 20260507050518 | 7 | 49 | 0.0 | 3.2 | 0.00 | 0.03 | 0.00 | 97 | 996.2 |
| 20260507045619 | 7 | 0.0 | 0.0 | 0.00 | 0.03 | 0.00 | 96 | 996.2 | |
| 20260507044521 | 7 | 0.0 | 0.0 | 0.00 | 0.05 | 0.00 | 96 | 996.1 | |
| 20260507043516 | 7 | 0.0 | 0.0 | 0.00 | 0.05 | 0.00 | 96 | 996.0 | |
| 20260507042517 | 7 | 0.0 | 0.0 | 0.00 | 0.05 | 0.00 | 96 | 995.9 | |
| 20260507041519 | 7 | 0.0 | 0.0 | 0.00 | 0.05 | 0.00 | 96 | 995.8 | |
| 20260507040540 | 7 | 0.0 | 0.0 | 0.00 | 0.08 | 0.00 | 96 | 995.8 | |
| 20260507035516 | 7 | 0.0 | 0.0 | 0.00 | 0.08 | 0.00 | 96 | 995.8 | |
| 20260507034537 | 7 | 0.0 | 0.0 | 0.00 | 0.08 | 0.00 | 95 | 995.8 | |
| 20260507033539 | 7 | 0.0 | 0.0 | 0.00 | 0.08 | 0.00 | 95 | 995.7 | |
| 20260507032520 | 7 | 0.0 | 0.0 | 0.00 | 0.10 | 0.00 | 95 | 995.7 | |
| 20260507031516 | 7 | 0.0 | 0.0 | 0.00 | 0.13 | 0.00 | 95 | 995.7 | |
| 20260507030537 | 7 | 0.0 | 0.0 | 0.00 | 0.15 | 0.00 | 95 | 995.8 | |
| 20260507025518 | 7 | 0.0 | 0.0 | 0.00 | 0.15 | 0.00 | 95 | 995.8 | |
| 20260507024559 | 7 | 0.0 | 0.0 | 0.00 | 0.18 | 0.00 | 95 | 995.8 | |
| 20260507023515 | 7 | 0.0 | 0.0 | 0.00 | 0.20 | 0.00 | 95 | 995.8 | |
| 20260507022517 | 7 | 240 | 0.0 | 1.6 | 0.00 | 0.20 | 0.00 | 96 | 995.7 |
| 20260507021518 | 7 | 0.0 | 0.0 | 0.00 | 0.23 | 0.00 | 96 | 995.6 | |
| 20260507020519 | 7 | 251 | 0.0 | 3.2 | 0.00 | 0.23 | 0.00 | 96 | 995.6 |
| 20260507015520 | 7 | 0.0 | 0.0 | 0.00 | 0.23 | 0.00 | 96 | 995.5 | |
| 20260507014526 | 7 | 0.0 | 0.0 | 0.00 | 0.23 | 0.00 | 96 | 995.5 | |
| 20260507013522 | 7 | 0.0 | 0.0 | 0.00 | 0.25 | 0.00 | 96 | 995.4 | |
| 20260507012523 | 7 | 0.0 | 1.6 | 0.00 | 0.25 | 0.00 | 96 | 995.5 | |
| 20260507011525 | 7 | 211 | 0.0 | 1.6 | 0.00 | 0.25 | 0.00 | 96 | 995.5 |
| 20260507010526 | 7 | 208 | 1.6 | 3.2 | 0.00 | 0.28 | 0.00 | 96 | 995.5 |
| 20260507005522 | 7 | 0.0 | 0.0 | 0.00 | 0.28 | 0.00 | 96 | 995.4 | |
| 20260507004523 | 7 | 0.0 | 0.0 | 0.00 | 0.30 | 0.00 | 96 | 995.4 | |
| 20260507003525 | 7 | 0.0 | 0.0 | 0.00 | 0.33 | 0.00 | 96 | 995.4 | |
| 20260507002526 | 7 | 0.0 | 0.0 | 0.00 | 0.38 | 0.00 | 97 | 995.4 | |
| 20260507001542 | 7 | 0.0 | 0.0 | 0.00 | 0.41 | 0.00 | 97 | 995.4 | |
| 20260507000523 | 6 | 0.0 | 0.0 | 0.00 | 0.41 | 0.00 | 97 | 995.4 | |
| 20260506235524 | 6 | 0.0 | 0.0 | 0.00 | 0.43 | 0.00 | 96 | 995.4 | |
| 20260506234526 | 6 | 0.0 | 0.0 | 0.00 | 0.43 | 0.00 | 97 | 995.5 | |
| 20260506233522 | 5 | 0.0 | 0.0 | 0.00 | 0.43 | 0.00 | 96 | 995.5 | |
| 20260506232523 | 5 | 0.0 | 0.0 | 0.00 | 0.43 | 0.00 | 96 | 995.4 | |
| 20260506231524 | 5 | 0.0 | 0.0 | 0.00 | 0.43 | 0.00 | 95 | 995.4 | |
| 20260506230526 | 5 | 0.0 | 0.0 | 0.00 | 0.46 | 0.00 | 95 | 995.4 | |
| 20260506225602 | 5 | 0.0 | 0.0 | 0.00 | 0.46 | 0.00 | 95 | 995.4 | |
| 20260506224518 | 5 | 0.0 | 0.0 | 0.00 | 0.46 | 0.00 | 95 | 995.4 | |
| 20260506223519 | 6 | 0.0 | 0.0 | 0.00 | 0.46 | 0.00 | 95 | 995.3 | |
| 20260506222515 | 6 | 0.0 | 0.0 | 0.00 | 0.48 | 0.00 | 94 | 995.3 | |
| 20260506221516 | 6 | 0.0 | 0.0 | 0.00 | 0.48 | 0.00 | 94 | 995.3 | |
| 20260506220517 | 6 | 0.0 | 0.0 | 0.00 | 0.48 | 0.00 | 93 | 995.2 | |
| 20260506215519 | 6 | 0.0 | 0.0 | 0.00 | 0.48 | 0.48 | 93 | 995.2 | |
| 20260506214520 | 6 | 0.0 | 0.0 | 0.00 | 0.51 | 0.48 | 93 | 995.1 | |
| 20260506213516 | 6 | 0.0 | 0.0 | 0.00 | 0.51 | 0.48 | 93 | 995.1 | |
| 20260506212517 | 6 | 0.0 | 0.0 | 0.00 | 0.53 | 0.48 | 92 | 995.1 | |
| 20260506211538 | 7 | 0.0 | 0.0 | 0.00 | 0.61 | 0.48 | 91 | 995.1 | |
| 20260506210519 | 7 | 0.0 | 0.0 | 0.00 | 0.61 | 0.48 | 91 | 995.1 | |
| 20260506205521 | 7 | 0.0 | 0.0 | 0.00 | 0.66 | 0.48 | 90 | 995.0 | |
| 20260506204516 | 7 | 0.0 | 0.0 | 0.00 | 0.71 | 0.48 | 89 | 994.9 | |
| 20260506203538 | 8 | 0.0 | 0.0 | 0.00 | 0.79 | 0.48 | 88 | 994.9 | |
| 20260506202539 | 8 | 0.0 | 0.0 | 0.00 | 0.89 | 0.48 | 88 | 994.8 | |
| 20260506201520 | 8 | 280 | 0.0 | 3.2 | 0.00 | 0.99 | 0.48 | 89 | 994.8 |
| 20260506200536 | 8 | 0.0 | 3.2 | 0.00 | 1.09 | 0.48 | 89 | 994.6 | |
| 20260506195517 | 8 | 0.0 | 0.0 | 0.00 | 1.17 | 0.48 | 89 | 994.5 | |
| 20260506194518 | 9 | 0.0 | 0.0 | 0.00 | 1.19 | 0.48 | 88 | 994.3 | |
| 20260506193520 | 9 | 217 | 0.0 | 1.6 | 0.00 | 1.19 | 0.48 | 87 | 994.2 |
| 20260506192516 | 9 | 0.0 | 0.0 | 0.00 | 1.22 | 0.48 | 85 | 994.0 | |
| 20260506191517 | 10 | 0.0 | 0.0 | 0.00 | 1.22 | 0.48 | 84 | 993.9 | |
| 20260506190518 | 10 | 0.0 | 0.0 | 0.00 | 1.27 | 0.48 | 83 | 993.8 | |
| 20260506185519 | 10 | 277 | 0.0 | 0.0 | 0.00 | 1.27 | 0.48 | 82 | 993.8 |
| 20260506184520 | 10 | 257 | 0.0 | 1.6 | 0.00 | 1.32 | 0.48 | 82 | 993.7 |
| 20260506183516 | 11 | 320 | 0.0 | 3.2 | 0.00 | 1.37 | 0.48 | 81 | 993.6 |
| 20260506182518 | 11 | 16 | 0.0 | 3.2 | 0.00 | 1.40 | 0.48 | 80 | 993.5 |
| 20260506181519 | 11 | 283 | 0.0 | 3.2 | 0.00 | 1.42 | 0.48 | 78 | 993.4 |
| 20260506180515 | 11 | 291 | 0.0 | 6.4 | 0.00 | 1.45 | 0.48 | 77 | 993.3 |
| 20260506175516 | 12 | 41 | 1.6 | 4.8 | 0.00 | 1.45 | 0.48 | 76 | 993.2 |
| 20260506174517 | 12 | 29 | 4.8 | 12.9 | 0.00 | 1.50 | 0.48 | 75 | 993.1 |
| 20260506173558 | 12 | 14 | 8.0 | 19.3 | 0.00 | 1.52 | 0.48 | 75 | 993.0 |
| 20260506172559 | 12 | 41 | 6.4 | 14.5 | 0.00 | 1.55 | 0.48 | 76 | 992.8 |
| 20260506171515 | 12 | 13 | 6.4 | 16.1 | 0.00 | 1.63 | 0.48 | 75 | 992.8 |
| 20260506170516 | 12 | 16 | 6.4 | 14.5 | 0.00 | 1.68 | 0.48 | 75 | 992.7 |
| 20260506165517 | 12 | 34 | 4.8 | 14.5 | 0.00 | 1.73 | 0.48 | 76 | 992.7 |
| 20260506164518 | 12 | 33 | 4.8 | 12.9 | 0.00 | 1.75 | 0.48 | 77 | 992.7 |
| 20260506163519 | 12 | 12 | 3.2 | 12.9 | 0.00 | 1.80 | 0.48 | 76 | 992.7 |
| 20260506162535 | 12 | 338 | 3.2 | 9.7 | 0.00 | 1.83 | 0.48 | 75 | 992.7 |
| 20260506161516 | 12 | 20 | 3.2 | 11.3 | 0.00 | 1.85 | 0.48 | 73 | 992.6 |
| 20260506160517 | 12 | 39 | 6.4 | 12.9 | 0.00 | 1.88 | 0.48 | 72 | 992.6 |
| 20260506155519 | 13 | 22 | 4.8 | 12.9 | 0.00 | 1.88 | 0.48 | 71 | 992.6 |
| 20260506154535 | 13 | 27 | 4.8 | 17.7 | 0.00 | 1.91 | 0.48 | 72 | 992.5 |
| 20260506153516 | 13 | 41 | 6.4 | 11.3 | 0.00 | 1.93 | 0.48 | 73 | 992.5 |
| 20260506152517 | 12 | 6 | 4.8 | 16.1 | 0.00 | 1.98 | 0.48 | 73 | 992.6 |
| 20260506151517 | 12 | 36 | 4.8 | 14.5 | 0.00 | 2.03 | 0.48 | 75 | 992.7 |
| 20260506150519 | 12 | 37 | 1.6 | 6.4 | 0.00 | 2.08 | 0.48 | 76 | 992.7 |
| 20260506145514 | 12 | 24 | 6.4 | 16.1 | 0.00 | 2.16 | 0.48 | 76 | 992.7 |
| 20260506144516 | 12 | 8 | 3.2 | 11.3 | 0.00 | 2.21 | 0.48 | 77 | 992.6 |
| 20260506143517 | 12 | 44 | 6.4 | 14.5 | 0.00 | 2.21 | 0.48 | 76 | 992.6 |
| 20260506142518 | 12 | 42 | 6.4 | 14.5 | 0.00 | 2.26 | 0.48 | 75 | 992.5 |